Flag for Germany Weather past 2 weeks in Falkensee, Brandenburg, Germany

Now
57 °F

Clear.


Feels Like: 55 °F
Forecast: 52 / 58 °F
Wind: 8 mph from Southwest

Location: Berlin-Tegel

Current Time: Sep 5, 2015 at 2:12:04 AM

Latest Report: Sep 5, 2015 at 1:20 AM


Visibility: 10 mi

Pressure: 29.83 "Hg

Humidity: 63%

Dew point: 45 °F

Location of FalkenseeLocation

Historic Weather in Falkensee — Graph

°F

Falkensee temperature yesterday

Maximum temperature yesterday: 68 °F (at 2:50 PM)
Minimum temperature yesterday: 50 °F (at 4:50 AM)
Average temperature yesterday: 59 °F

Past Weeks' High & Low Weather Summary

 TemperatureHumidityPressure
High93 °F (Aug 31, 2:20 PM)100% (Aug 28, 3:20 AM)30.30 "Hg (Aug 28, 3:20 AM)
Low50 °F (Sep 4, 4:50 AM)18% (Aug 21, 4:20 PM)29.71 "Hg (Aug 24, 7:20 PM)
Average68 °F63%29.98 "Hg
* Reported Aug 21 12:50 AM — Sep 5 12:50 AM, Falkensee, Weather by CustomWeather, © 2015

Note: Actual official high and low records may vary slightly from our data, if they occured in-between our weather recording intervals... More about our weather records

Advertising

Falkensee weather history for previous 24 hours

 ConditionsComfort  
Time TempWeatherWind HumidityBarometerVisibility
12:50 AM
Sat, Sep 5
57 °FClear.8 mph63%29.83 "Hg10 mi
12:20 AM57 °FClear.7 mph67%29.86 "Hg10 mi
11:20 PM
Fri, Sep 4
57 °FClear.8 mph67%29.86 "Hg10 mi
10:50 PM57 °FClear.9 mph63%29.86 "Hg10 mi
10:20 PM59 °FClear.10 mph59%29.86 "Hg10 mi
9:50 PM59 °FClear.12 mph59%29.89 "Hg10 mi
9:20 PM61 °FClear.10 mph55%29.89 "Hg10 mi
8:50 PM61 °FClear.10 mph55%29.86 "Hg10 mi
8:20 PM63 °FPassing clouds.7 mph59%29.86 "HgN/A
7:50 PM61 °FSunny.6 mph63%29.86 "Hg10 mi
7:20 PM63 °FPassing clouds.7 mph59%29.86 "HgN/A
6:50 PM64 °FScattered clouds.9 mph56%29.86 "HgN/A
6:20 PM64 °FPassing clouds.7 mph52%29.86 "HgN/A
5:50 PM64 °FPassing clouds.9 mph56%29.89 "HgN/A
5:20 PM64 °FPassing clouds.8 mph56%29.89 "HgN/A
4:50 PM61 °FScattered showers. Scattered clouds.9 mph68%29.89 "HgN/A
4:20 PM64 °FScattered showers. Partly sunny.10 mph52%29.89 "HgN/A
3:50 PM68 °FScattered clouds.9 mph46%29.89 "HgN/A
3:20 PM68 °FPassing clouds.10 mph46%29.89 "HgN/A
2:50 PM68 °FPassing clouds.13 mph49%29.92 "HgN/A
2:20 PM66 °FScattered clouds.12 mph52%29.92 "HgN/A
1:50 PM66 °FScattered clouds.13 mph49%29.92 "HgN/A
1:20 PM64 °FScattered clouds.12 mph52%29.92 "HgN/A
12:50 PM64 °FScattered clouds.10 mph56%29.92 "HgN/A
12:20 PM64 °FPassing clouds.9 mph60%29.92 "HgN/A
11:50 AM64 °FScattered clouds.7 mph64%29.95 "HgN/A
11:20 AM63 °FPartly sunny.7 mph64%29.95 "HgN/A
10:50 AM61 °FScattered clouds.6 mph72%29.95 "HgN/A
10:20 AM61 °FPassing clouds.6 mph72%29.95 "HgN/A
9:50 AM59 °FPassing clouds.5 mph72%29.92 "HgN/A
9:20 AM59 °FSunny.7 mph82%29.95 "Hg10 mi
8:50 AM57 °FSunny.6 mph82%29.92 "Hg10 mi
8:20 AM55 °FSunny.3 mph94%29.92 "Hg10 mi
7:50 AM54 °FSunny.1 mph100%29.92 "Hg10 mi
7:20 AM52 °FFog.1 mph100%29.92 "HgN/A
6:50 AM52 °FCool.1 mph100%29.92 "HgN/A
6:20 AM52 °FFog.No wind100%29.92 "HgN/A
5:50 AM50 °FFog.2 mph100%29.92 "Hg1 mi
5:20 AM50 °FFog.1 mph100%29.92 "Hg1 mi
4:50 AM50 °FFog.2 mph94%29.92 "Hg1 mi
4:20 AM52 °FFog.2 mph100%29.92 "Hg3 mi
3:50 AM52 °FFog.2 mph100%29.92 "Hg1 mi
3:20 AM54 °FFog.1 mph100%29.92 "Hg1 mi
2:50 AM54 °FFog.2 mph100%29.92 "HgN/A
2:20 AM55 °FClear.2 mph94%29.92 "Hg10 mi
Weather by CustomWeather, © 2015

See weather overviewHow to use our weather pages